Location: B?dimalle
(17.1788°N, 80.5377°E)
Time: 10:11:17
(UTC+00:00)

Tiros 1 despin weight - Pass Details

Date: 23 February 2026
Orbit: 556 x 593 km, 48.2° (Epoch: 10 March)

Event Time Altitude Azimuth Distance (km) Brightness Sun altitude
Rises 14:17:30 0° 334° (NNW) 2,724 ? -23.3°
Reaches altitude 10° 14:20:05 10° 349° (N) 1,832 ? -23.9°
Enters shadow 14:20:45 13° 355° (N) 1,629 ? -24.1°
Maximum altitude 14:23:30 24° 44° (NE) 1,177 - -24.8°
Drops below altitude 10° 14:26:55 10° 98° (E) 1,843 - -25.6°
Sets 14:29:31 0° 113° (ESE) 2,744 - -26.2°
